Location: ?????????
(55.6553°N, 38.9075°E)
Time: 17:24:54
(UTC+00:00)

Aureole 1 Rocket - Pass Details

Date: 18 October 2019
Orbit: 380 x 1382 km, 73.9° (Epoch: 18 November)

Event Time Altitude Azimuth Distance (km) Brightness Sun altitude
Exits shadow 02:58:27 - 243° (WSW) 2,866 5.9 -9.4°
Reaches altitude 10° 02:59:21 10° 247° (WSW) 2,550 5.7 -9.3°
Maximum altitude 03:04:27 32° 309° (NW) 1,243 4.2 -8.5°
Drops below altitude 10° 03:08:30 10° 14° (NNE) 1,989 5.8 -8.0°
Sets 03:10:40 0° 25° (NNE) 2,760 6.7 -7.7°
